Weather History for KODO - December, 2013

Change the Weather History Date:

Monday, December 30, 2013

  Actual Average (KMAF) Record (KMAF)
Temperature  
Mean Temperature 41 °F 43 °F  
Max Temperature 59 °F 57 °F 82 °F (1951)
Min Temperature 23 °F 30 °F 12 °F (1983)
Degree Days  
Heating Degree Days 24 22  
Month to date heating degree days 617  
Since 1 July heating degree days 1096  
Moisture  
Dew Point 22 °F    
Average Humidity 59    
Maximum Humidity 85    
Minimum Humidity 22    
Precipitation  
Precipitation 0.00 in 0.01 in 0.50 in (1946)
Month to date precipitation 0.58  
Year to date precipitation 14.58  
Snow  
Snow 0.00 in - - ()
Month to date snowfall  
Since 1 July snowfall  
Snow Depth -    
Sea Level Pressure  
Sea Level Pressure 30.25 in    
Wind  
Wind Speed 6 mph (NW)    
Max Wind Speed 13 mph    
Max Gust Speed 18 mph    
Visibility 10 miles    
Events      
T = Trace of Precipitation, MM = Missing Value Source: NWS Daily Summary

Daily Weather History Graph

Daily Weather History Graph

Search for Another Location

Airport or City:

Trip Planner

Search our weather history database for the weather conditions in past years. The results will help you decide how hot, cold, wet, or windy it might be!

Date:

Astronomy

Dec. 30, 2013 Rise Set
Actual Time 7:49 AM CST 5:55 PM CST
Civil Twilight 7:22 AM CST 6:22 PM CST
Nautical Twilight 6:52 AM CST 6:52 PM CST
Astronomical Twilight 6:22 AM CST 7:22 PM CST
Moon 5:44 AM CST (12/30) 4:27 PM CST (12/30)
Length of Visible Light 10h 59m
Length of Day
10h 05m
Waning Crescent, 4% of the Moon is Illuminated
Dec 30
Waning Crescent
Jan 1
New
Jan 7
First Quarter
Jan 15
Full
Jan 23
Last Quarter

Hourly Weather History & Observations

Time (CST) Temp. Windchill Dew Point Humidity Pressure Visibility Wind Dir Wind Speed Gust Speed Precip Events Conditions
12:53 AM 26.1 °F 21.9 °F 21.0 °F 81% 30.30 in 10.0 mi WNW 3.5 mph - N/A   Clear
1:53 AM 24.1 °F 19.7 °F 19.9 °F 84% 30.29 in 10.0 mi West 3.5 mph - N/A   Clear
2:53 AM 24.1 °F - 19.9 °F 84% 30.27 in 10.0 mi Calm Calm - N/A   Clear
3:53 AM 24.1 °F 18.2 °F 19.0 °F 81% 30.25 in 10.0 mi West 4.6 mph - N/A   Clear
4:53 AM 23.0 °F 18.4 °F 19.0 °F 85% 30.23 in 10.0 mi WSW 3.5 mph - N/A   Clear
5:53 AM 24.1 °F 17.0 °F 18.0 °F 77% 30.23 in 10.0 mi WSW 5.8 mph - N/A   Clear
6:53 AM 25.0 °F 18.1 °F 19.0 °F 78% 30.22 in 10.0 mi WSW 5.8 mph - N/A   Clear
7:53 AM 24.1 °F 18.2 °F 19.0 °F 81% 30.25 in 10.0 mi West 4.6 mph - N/A   Clear
8:53 AM 28.0 °F 21.7 °F 19.9 °F 72% 30.24 in 10.0 mi WSW 5.8 mph - N/A   Clear
9:53 AM 35.1 °F 26.9 °F 21.0 °F 57% 30.24 in 10.0 mi WSW 11.5 mph - N/A   Clear
10:53 AM 39.9 °F 33.4 °F 21.0 °F 47% 30.24 in 10.0 mi SW 10.4 mph - N/A   Clear
11:53 AM 46.0 °F 41.0 °F 23.0 °F 40% 30.22 in 10.0 mi WSW 10.4 mph - N/A   Clear
12:53 PM 50.0 °F - 23.0 °F 35% 30.19 in - West 9.2 mph - N/A   Clear
1:53 PM 54.0 °F - 25.0 °F 33% 30.16 in 10.0 mi West 10.4 mph - N/A   Clear
2:53 PM 57.9 °F - 21.9 °F 25% 30.15 in 10.0 mi NNW 8.1 mph - N/A   Clear
3:53 PM 59.0 °F - 19.9 °F 22% 30.16 in 10.0 mi North 6.9 mph 18.4 mph N/A   Clear
4:53 PM 57.0 °F - 21.9 °F 26% 30.19 in 10.0 mi North 12.7 mph - N/A   Clear
5:53 PM 50.0 °F - 25.0 °F 38% 30.23 in 10.0 mi NNE 10.4 mph - N/A   Clear
6:53 PM 42.1 °F 37.1 °F 26.1 °F 53% 30.27 in 10.0 mi NE 8.1 mph - N/A   Clear
7:53 PM 42.1 °F 36.1 °F 26.1 °F 53% 30.30 in 10.0 mi NNE 10.4 mph - N/A   Clear
8:53 PM 39.9 °F 32.9 °F 27.0 °F 60% 30.33 in 10.0 mi NNE 11.5 mph - N/A   Clear
9:53 PM 37.9 °F 30.5 °F 27.0 °F 65% 30.34 in 10.0 mi NE 11.5 mph - N/A   Clear
10:53 PM 35.1 °F 27.9 °F 27.0 °F 72% 30.36 in 10.0 mi NNE 9.2 mph - N/A   Clear
11:53 PM 33.1 °F 25.5 °F 26.1 °F 75% 30.37 in 10.0 mi NNE 9.2 mph - N/A   Clear